Date String (YYYY-MM-DD hh:mm:ss) UTC,Instrument flags,Ambient pressure (hPa),Sample flow (lpm),Bypass flow (lpm),Sample temperature (°C),Ambient temperature (°C),ASC tube jacket temperature (°C),LED temperature (°C),Box temperature (°C),Sample RH (%),Span deviation,Mass concentration (μg/m³),Mass concentration (μg/m³),Mass concentration (μg/m³)
DateTimeUTC,F1_M11,P_M11,Q1_M11,Q2_M11,T1_M11,T2_M11,T3_M11,T4_M11,T5_M11,U1_M11,ZSPAN_M11,X0_M11,X2_M11,X1_M11
2023-03-10 20:00:00,,0815.4,5.00,0.00,22.5,21.0,00.0,31.2,24.3,17.4,-001.8,0021.28,0013.04,0012.29
2023-03-10 20:01:00,,0815.3,5.00,0.00,22.5,21.0,00.0,31.2,24.3,17.4,-001.8,0022.12,0013.07,0012.30
2023-03-10 20:02:00,,0815.3,5.00,0.00,22.5,21.0,00.0,31.2,24.3,17.4,-001.7,0022.34,0013.14,0012.32
2023-03-10 20:03:00,,0815.2,5.00,0.00,22.5,21.0,00.0,31.2,24.3,17.2,-001.8,0022.16,0013.21,0012.35
2023-03-10 20:04:00,,0815.2,4.99,0.00,22.5,21.0,00.0,31.2,24.3,17.3,-001.8,0021.64,0013.22,0012.36
2023-03-10 20:05:00,,0815.2,4.99,0.00,22.5,21.0,00.0,31.2,24.3,17.4,-001.9,0022.05,0013.26,0012.37
2023-03-10 20:06:00,,0815.4,5.00,0.00,22.5,21.0,00.0,31.2,24.3,17.3,-002.0,0022.45,0013.35,0012.43
2023-03-10 20:07:00,,0815.2,5.00,0.00,22.5,20.9,00.0,31.2,24.3,17.3,-002.2,0022.22,0013.41,0012.46
2023-03-10 20:08:00,,0815.2,5.01,0.00,22.5,21.0,00.0,31.2,24.3,17.3,-002.3,0022.60,0013.46,0012.49
2023-03-10 20:09:00,,0815.3,5.01,0.00,22.5,21.0,00.0,31.2,24.3,17.3,-002.1,0022.99,0013.51,0012.52
2023-03-10 20:10:00,,0815.2,5.01,0.00,22.5,21.0,00.0,31.2,24.3,17.3,-002.2,0022.80,0013.61,0012.58
2023-03-10 20:11:00,,0815.3,5.00,0.00,22.5,21.0,00.0,31.2,24.3,17.5,-002.2,0022.16,0013.69,0012.64
2023-03-10 20:12:00,,0815.2,5.00,0.00,22.5,21.0,00.0,31.2,24.3,17.4,-002.2,0021.57,0013.77,0012.66
2023-03-10 20:13:00,,0815.1,4.99,0.00,22.5,20.9,00.0,31.2,24.3,17.4,-002.3,0021.52,0013.72,0012.66
2023-03-10 20:14:00,,0815.3,4.99,0.00,22.5,21.0,00.0,31.2,24.2,17.5,-002.3,0021.72,0013.76,0012.68
2023-03-10 20:15:00,,0815.1,5.00,0.00,22.5,21.0,00.0,31.2,24.3,17.5,-002.4,0022.24,0013.86,0012.70
2023-03-10 20:16:00,,0815.0,4.99,0.00,22.5,21.0,00.0,31.2,24.3,17.6,-002.4,0022.94,0013.94,0012.74
2023-03-10 20:17:00,,0814.9,5.00,0.00,22.5,21.0,00.0,31.2,24.2,17.4,-002.3,0022.44,0013.97,0012.76
2023-03-10 20:18:00,,0815.1,4.99,0.00,22.5,21.0,00.0,31.2,24.3,17.5,-002.3,0022.64,0014.01,0012.77
2023-03-10 20:19:00,,0815.4,5.00,0.00,22.5,21.0,00.0,31.2,24.3,17.5,-002.3,0022.74,0014.00,0012.76
2023-03-10 20:20:00,,0815.3,5.01,0.00,22.5,21.0,00.0,31.2,24.3,17.5,-002.5,0023.07,0013.99,0012.76
2023-03-10 20:21:00,,0815.0,5.01,0.00,22.5,20.9,00.0,31.2,24.2,17.5,-002.5,0023.88,0014.00,0012.77
2023-03-10 20:22:00,,0814.8,5.00,0.00,22.5,20.9,00.0,31.2,24.2,17.5,-002.8,0024.54,0014.02,0012.78
2023-03-10 20:23:00,,0814.9,5.00,0.00,22.5,20.9,00.0,31.2,24.3,17.6,-002.7,0024.55,0013.99,0012.81
2023-03-10 20:24:00,,0815.0,5.00,0.00,22.5,21.0,00.0,31.2,24.3,17.6,-002.7,0024.72,0014.09,0012.84
2023-03-10 20:25:00,,0815.0,5.00,0.00,22.5,21.0,00.0,31.2,24.3,17.6,-002.7,0024.83,0014.12,0012.84
2023-03-10 20:26:00,,0814.8,5.00,0.00,22.5,21.0,00.0,31.2,24.2,17.6,-002.9,0024.54,0014.10,0012.84
2023-03-10 20:27:00,,0815.0,5.00,0.00,22.5,20.8,00.0,31.2,24.2,17.6,-002.9,0023.55,0014.05,0012.81
2023-03-10 20:28:00,,0815.0,5.00,0.00,22.4,20.7,00.0,31.2,24.2,17.7,-002.9,0023.50,0014.04,0012.78
2023-03-10 20:29:00,,0815.0,5.01,0.00,22.4,20.7,00.0,31.2,24.1,17.8,-002.8,0023.72,0014.03,0012.77
2023-03-10 20:30:00,,0815.2,5.00,0.00,22.4,20.7,00.0,31.2,24.1,17.8,-002.7,0023.30,0014.01,0012.76
2023-03-10 20:31:00,,0815.1,5.00,0.00,22.4,20.8,00.0,31.2,24.2,17.7,-002.7,0022.98,0013.99,0012.74
2023-03-10 20:32:00,,0814.8,4.99,0.00,22.4,20.8,00.0,31.2,24.2,17.7,-002.6,0022.40,0013.97,0012.71
2023-03-10 20:33:00,,0815.0,5.00,0.00,22.4,20.9,00.0,31.2,24.2,17.8,-002.3,0022.40,0013.93,0012.67
2023-03-10 20:34:00,,0815.1,5.00,0.00,22.4,20.9,00.0,31.2,24.2,17.7,-002.5,0022.05,0013.89,0012.63
2023-03-10 20:35:00,,0815.1,5.00,0.00,22.4,20.9,00.0,31.2,24.2,17.8,-002.4,0022.07,0013.92,0012.62
2023-03-10 20:36:00,,0814.9,5.01,0.00,22.4,21.0,00.0,31.2,24.3,17.8,-002.2,0021.80,0013.91,0012.62
2023-03-10 20:37:00,,0814.8,5.00,0.00,22.4,21.0,00.0,31.2,24.3,17.8,-002.0,0021.73,0013.88,0012.59
2023-03-10 20:38:00,,0815.0,5.00,0.00,22.5,21.0,00.0,31.2,24.3,17.8,-002.0,0022.27,0013.87,0012.57
2023-03-10 20:39:00,,0814.9,5.00,0.00,22.5,21.0,00.0,31.2,24.3,17.8,-002.2,0022.53,0013.78,0012.52
2023-03-10 20:40:00,,0815.2,4.99,0.00,22.5,21.0,00.0,31.2,24.3,17.9,-002.2,0021.93,0013.71,0012.49
2023-03-10 20:41:00,,0814.9,5.00,0.00,22.5,21.0,00.0,31.2,24.3,17.8,-002.2,0022.00,0013.65,0012.47
2023-03-10 20:42:00,,0814.9,5.00,0.00,22.4,21.0,00.0,31.2,24.2,17.9,-002.3,0021.69,0013.60,0012.44
2023-03-10 20:43:00,,0814.7,5.00,0.00,22.5,21.0,00.0,31.2,24.3,18.0,-002.3,0021.67,0013.55,0012.43
2023-03-10 20:44:00,,0814.8,5.00,0.00,22.5,21.0,00.0,31.2,24.3,17.9,-002.2,0021.20,0013.52,0012.42
2023-03-10 20:45:00,,0814.8,5.00,0.00,22.5,21.0,00.0,31.2,24.3,17.9,-002.2,0021.95,0013.51,0012.42
2023-03-10 20:46:00,,0814.9,5.01,0.00,22.5,21.0,00.0,31.2,24.3,17.9,-002.3,0022.11,0013.45,0012.38
2023-03-10 20:47:00,,0814.9,5.02,0.00,22.5,21.1,00.0,31.2,24.3,17.9,-002.5,0021.93,0013.35,0012.34
2023-03-10 20:48:00,,0814.8,5.00,0.00,22.5,21.1,00.0,31.2,24.3,17.9,-002.4,0021.86,0013.32,0012.31
2023-03-10 20:49:00,,0814.9,5.00,0.00,22.5,21.2,00.0,31.2,24.3,18.0,-002.4,0022.07,0013.26,0012.28
2023-03-10 20:50:00,,0814.8,5.00,0.00,22.5,21.2,00.0,31.2,24.4,18.0,-002.3,0021.65,0013.25,0012.28
2023-03-10 20:51:00,,0815.2,5.01,0.00,22.5,21.1,00.0,31.2,24.4,18.1,-002.4,0021.30,0013.23,0012.26
2023-03-10 20:52:00,,0814.9,5.00,0.00,22.5,21.1,00.0,31.2,24.4,18.0,-002.6,0021.25,0013.21,0012.28
2023-03-10 20:53:00,,0815.1,5.01,0.00,22.5,21.1,00.0,31.2,24.3,18.1,-002.6,0020.99,0013.21,0012.28
2023-03-10 20:54:00,,0815.1,5.01,0.00,22.5,21.1,00.0,31.2,24.4,18.0,-002.6,0020.82,0013.19,0012.26
2023-03-10 20:55:00,,0814.9,5.01,0.00,22.6,21.2,00.0,31.2,24.4,18.0,-002.7,0020.92,0013.17,0012.24
2023-03-10 20:56:00,,0814.9,5.00,0.00,22.6,21.2,00.0,31.3,24.4,18.2,-002.7,0020.93,0013.16,0012.22
2023-03-10 20:57:00,,0814.9,4.99,0.00,22.6,21.2,00.0,31.3,24.4,18.1,-002.6,0021.29,0013.09,0012.21
2023-03-10 20:58:00,,0814.8,4.99,0.00,22.6,21.2,00.0,31.3,24.4,18.0,-002.4,0021.33,0013.06,0012.19
2023-03-10 20:59:00,,0814.8,5.00,0.00,22.6,21.2,00.0,31.3,24.4,18.1,-002.3,0021.18,0012.99,0012.18
